This is the latest recevied weather packets stored in our database for station/object W8BS. If no packets are shown the sender has not sent any weather packets the latest 1 day(s).
| Time | Temp. | Humidity | Pressure | Rain* | Wind** | Luminosity | Snow |
|---|---|---|---|---|---|---|---|
| 1778034062 | 16.67° C | 63% | 1009.7 hPa | 0 mm | - | 0 W/m² | - |
| 1778033759 | 16.67° C | 61% | 1009.8 hPa | 0 mm | - | 0 W/m² | - |
| 1778033456 | 16.67° C | 62% | 1009.7 hPa | 0 mm | - | 0 W/m² | - |
| 1778033153 | 17.22° C | 63% | 1010 hPa | 0 mm | - | 0 W/m² | - |
| 1778032851 | 17.22° C | 63% | 1010.2 hPa | 0 mm | - | 0 W/m² | - |
| 1778032548 | 16.67° C | 62% | 1009.9 hPa | 0 mm | - | 0 W/m² | - |
| 1778032245 | 16.67° C | 62% | 1010.2 hPa | 0 mm | - | 0 W/m² | - |
| 1778031638 | 16.67° C | 62% | 1010.2 hPa | 0 mm | - | 0 W/m² | - |
| 1778031033 | 16.67° C | 63% | 1010.2 hPa | 0 mm | - | 0 W/m² | - |
| 1778030729 | 16.67° C | 63% | 1009.9 hPa | 0 mm | - | 0 W/m² | - |
| 1778030426 | 16.67° C | 61% | 1009.7 hPa | 0 mm | - | 0 W/m² | - |
| 1778030124 | 16.67° C | 62% | 1010 hPa | 0 mm | - | 0 W/m² | - |
| 1778029820 | 17.22° C | 62% | 1010.2 hPa | 0 mm | - | 0 W/m² | - |
| 1778028913 | 17.22° C | 63% | 1009.8 hPa | 0 mm | - | 0 W/m² | - |
| 1778027091 | 17.78° C | 61% | 1010.4 hPa | 0 mm | - | 0 W/m² | - |
| 1778026484 | 18.33° C | 59% | 1010 hPa | 0 mm | - | 2 W/m² | - |
| 1778026181 | 18.33° C | 60% | 1009.9 hPa | 0 mm | - | 1 W/m² | - |
| 1778024970 | 18.89° C | 56% | 1010 hPa | 0 mm | - | 12 W/m² | - |
| 1778024365 | 18.89° C | 54% | 1010.1 hPa | 0 mm | - | 19 W/m² | - |
| 1778024062 | 18.89° C | 54% | 1010 hPa | 0 mm | - | 23 W/m² | - |
| 1778023457 | 19.44° C | 53% | 1009.9 hPa | 0 mm | - | 26 W/m² | - |
| 1778022549 | 20° C | 51% | 1009.7 hPa | 0 mm | - | 29 W/m² | - |
* Rain latest hour (hover to see other rain measurements)
** Current wind speed in m/s (hover to see current wind gust speed)